Location: Bailleul
(50.3375°N, 2.8513°E)
Time: 00:38:21
(UTC+00:00)

Cosmos 1908 - Visible Passes

Search period start: 24 October 2021 00:00
Search period end: 03 November 2021 00:00
Orbit: 509 x 529 km, 82.5° (Epoch: 23 October)

Date Brightness Start Highest point End Pass type
(mag) Time Alt. Az. Time Alt. Az. Time Alt. Az.
24 Oct 5.0 03:31:25 10° N 03:34:53 31° ENE 03:38:18 10° SE visible
24 Oct 4.3 05:07:28 10° NW 05:10:32 23° W 05:13:34 10° SW visible
24 Oct 3.3 17:26:27 10° SSW 17:30:19 80° W 17:34:12 10° N visible
25 Oct 5.7 03:23:01 17° ESE 03:23:01 17° ESE 03:24:09 10° SE visible
25 Oct 4.7 04:58:20 19° SW 04:58:20 19° SW 04:59:49 10° SSW visible
25 Oct 3.2 17:12:28 10° S 17:16:21 87° E 17:20:13 10° N visible
25 Oct 6.6 18:51:53 10° WNW 18:52:45 11° WNW 18:53:38 10° NW visible
26 Oct 6.5 18:37:07 10° W 18:38:41 12° WNW 18:40:16 10° NW visible
27 Oct 6.3 18:22:36 10° W 18:24:37 14° WNW 18:26:39 10° NNW visible
28 Oct 6.2 18:08:12 10° WSW 18:10:34 16° WNW 18:12:56 10° NNW visible
29 Oct 6.1 17:53:52 10° WSW 17:56:30 18° WNW 17:59:10 10° NNW visible
30 Oct 6.0 17:39:34 10° WSW 17:42:27 20° WNW 17:45:20 10° NNW visible
31 Oct 5.8 17:25:19 10° WSW 17:28:24 22° WNW 17:31:29 10° NNW visible
01 Nov 5.5 17:11:07 10° SW 17:14:21 26° WNW 17:17:36 10° NNW visible
02 Nov 5.3 16:56:55 10° SW 17:00:18 29° WNW 17:03:43 10° N visible
